Fort Collins, CO

1:28 AM MST on December 11, 2019 (GMT -0700)
Fort Collins-Loveland Municipal

Weather History for KFNL - October, 2019

Change the Weather History Date:

Sunday, October 27, 2019

  Actual Average Record
Temperature  
Mean Temperature 24 °F -  
Max Temperature 30 °F - 81 °F (2016)
Min Temperature 17 °F - 12 °F (2011)
Degree Days  
Heating Degree Days 41    
Month to date heating degree days 476  
Cooling Degree Days 0    
Month to date cooling degree days 0  
Moisture  
Dew Point 19 °F    
Average Humidity 87    
Maximum Humidity 92    
Minimum Humidity 81    
Precipitation  
Precipitation 0.03 in - 0.70 in (1998)
Snow  
Snow 0.00 in - - ()
Snow Depth 0.00 in    
Sea Level Pressure  
Sea Level Pressure 30.14 in    
Wind  
Wind Speed 11 mph (NNE)    
Max Wind Speed 16 mph    
Max Gust Speed 21 mph    
Visibility 4 miles    
Events Snow    
T = Trace of Precipitation, MM = Missing Value Source: NWS Daily Summary

Daily Weather History Graph

Daily Weather History Graph

Search for Another Location

Airport or City:

Astronomy

Oct. 27, 2019 Rise Set
Actual Time 7:23 AM MDT 6:03 PM MDT
Civil Twilight 6:55 AM MDT 6:31 PM MDT
Nautical Twilight 6:23 AM MDT 7:03 PM MDT
Astronomical Twilight 5:52 AM MDT 7:34 PM MDT
Moon 6:35 AM MDT (10/27) 6:14 PM MDT (10/27)
Length of Visible Light 11h 35m
Length of Day
10h 39m
Waning Crescent, 0% of the Moon is Illuminated
Oct 27
Waning Crescent
Oct 27
New
Nov 4
First Quarter
Nov 12
Full
Nov 19
Last Quarter

Hourly Weather History & Observations

Time (MDT) Temp. Windchill Dew Point Humidity Pressure Visibility Wind Dir Wind Speed Gust Speed Precip Events Conditions
12:46 AM 28.4 °F 18.5 °F 26.6 °F 93% 30.02 in 4.0 mi NNE 11.5 mph - 0.00 in   Overcast
12:56 AM 28.9 °F 18.6 °F 27.0 °F 92% 29.96 in 4.0 mi NNE 12.7 mph - 0.00 in   Overcast
1:56 AM 30.0 °F 20.5 °F 28.0 °F 92% 29.96 in 2.5 mi NE 11.5 mph - 0.00 in Snow Light Snow
2:06 AM 28.4 °F 15.4 °F 26.6 °F 93% 30.03 in 3.0 mi NNE 19.6 mph 26.5 mph 0.01 in Snow Light Snow
2:33 AM 26.6 °F 14.7 °F 24.8 °F 93% 30.03 in 10.0 mi NNE 15.0 mph - 0.01 in   Overcast
2:56 AM 26.1 °F 14.5 °F 24.1 °F 92% 29.97 in 9.0 mi NNE 13.8 mph - 0.01 in Snow Light Snow
3:56 AM 26.1 °F 14.5 °F 23.0 °F 88% 29.98 in 10.0 mi NNE 13.8 mph - 0.00 in   Overcast
4:56 AM 24.1 °F 11.5 °F 19.0 °F 81% 30.03 in 10.0 mi NNE 15.0 mph - N/A   Overcast
5:04 AM 24.8 °F 11.5 °F 19.4 °F 80% 30.06 in 10.0 mi NNE 17.3 mph 21.9 mph N/A   Overcast
5:56 AM 24.1 °F 15.2 °F 19.0 °F 81% 30.09 in 9.0 mi NE 8.1 mph - 0.00 in Snow Light Snow
6:10 AM 24.8 °F 11.9 °F 19.4 °F 80% 30.08 in 7.0 mi NNE 16.1 mph 19.6 mph 0.00 in Snow Light Snow
6:20 AM 23.0 °F 9.6 °F 19.4 °F 86% 30.08 in 8.0 mi NNE 16.1 mph - 0.00 in Snow Light Snow
7:56 AM 23.0 °F 13.9 °F 19.9 °F 88% 30.16 in 9.0 mi NNE 8.1 mph - 0.00 in Snow Light Snow
8:56 AM 24.1 °F 13.1 °F 19.9 °F 84% 30.19 in 8.0 mi NNE 11.5 mph - 0.00 in Snow Light Snow
9:13 AM 24.8 °F 14.6 °F 19.4 °F 80% 30.14 in 5.0 mi NNE 10.4 mph - 0.00 in Snow Light Snow
9:56 AM 25.0 °F 14.8 °F 21.0 °F 85% 30.21 in 5.0 mi NE 10.4 mph - 0.00 in Snow Light Snow
10:04 AM 24.8 °F 14.6 °F 21.2 °F 86% 30.15 in 7.0 mi North 10.4 mph - 0.00 in Snow Light Snow
10:42 AM 26.6 °F 18.2 °F 21.2 °F 80% 30.14 in 3.0 mi NE 8.1 mph - 0.00 in Snow Light Snow
10:46 AM 26.6 °F 18.2 °F 21.2 °F 80% 30.14 in 2.5 mi NE 8.1 mph - 0.00 in Snow Light Snow
10:56 AM 26.1 °F 16.2 °F 21.9 °F 84% 30.21 in 7.0 mi NE 10.4 mph - 0.00 in Snow Light Snow
11:01 AM 26.6 °F 17.5 °F 21.2 °F 80% 30.15 in 9.0 mi NNE 9.2 mph - 0.00 in Snow Light Snow
11:14 AM 26.6 °F 18.2 °F 21.2 °F 80% 30.14 in 9.0 mi NE 8.1 mph - 0.00 in Snow Light Snow
12:35 PM 26.6 °F 17.5 °F 21.2 °F 80% 30.11 in 2.0 mi NE 9.2 mph - 0.00 in Snow Light Snow
12:44 PM 26.6 °F 16.8 °F 21.2 °F 80% 30.11 in 5.0 mi NE 10.4 mph - 0.00 in Snow Light Snow
12:56 PM 25.0 °F 16.3 °F 21.9 °F 88% 30.19 in 8.0 mi NE 8.1 mph - 0.00 in Snow Light Snow
2:05 PM 24.8 °F 14.6 °F 21.2 °F 86% 30.10 in 2.5 mi NE 10.4 mph - 0.00 in Snow Light Snow
2:16 PM 24.8 °F 14.0 °F 21.2 °F 86% 30.09 in 4.0 mi NE 11.5 mph - 0.01 in Snow Light Snow
2:56 PM 24.1 °F 11.0 °F 19.9 °F 84% 30.18 in 1.8 mi NNE 16.1 mph 20.7 mph 0.01 in Snow Light Snow
3:18 PM 23.0 °F 10.1 °F 19.4 °F 86% 30.09 in 2.5 mi NNE 15.0 mph - 0.00 in Snow Light Snow
3:31 PM 23.0 °F 10.6 °F 19.4 °F 86% 30.09 in 4.0 mi NNE 13.8 mph - 0.00 in Snow Light Snow
3:39 PM 21.2 °F 7.8 °F 19.4 °F 93% 30.10 in 1.8 mi NNE 15.0 mph - 0.00 in Snow Light Snow
3:56 PM 21.9 °F 9.2 °F 18.0 °F 85% 30.21 in 2.5 mi NNE 13.8 mph - 0.00 in Snow Light Snow
4:04 PM 21.2 °F 8.9 °F 17.6 °F 86% 30.10 in 3.0 mi NNE 12.7 mph - 0.00 in Snow Light Snow
4:11 PM 21.2 °F 7.8 °F 17.6 °F 86% 30.11 in 2.0 mi NNE 15.0 mph - 0.00 in Snow Light Snow
4:20 PM 21.2 °F 8.3 °F 17.6 °F 86% 30.11 in 3.0 mi NNE 13.8 mph - 0.00 in Snow Light Snow
4:42 PM 21.2 °F 8.3 °F 17.6 °F 86% 30.11 in 3.0 mi NNE 13.8 mph - 0.00 in Snow Light Snow
4:56 PM 21.0 °F 8.6 °F 18.0 °F 88% 30.23 in 4.0 mi NNE 12.7 mph - 0.00 in Snow Light Snow
5:48 PM 19.4 °F 7.9 °F 15.8 °F 86% 30.12 in 7.0 mi NNE 10.4 mph - 0.00 in Snow Light Snow
5:56 PM 19.9 °F 10.1 °F 16.0 °F 85% 30.25 in 8.0 mi NNE 8.1 mph - 0.00 in Snow Light Snow
6:45 PM 19.4 °F 9.5 °F 15.8 °F 86% 30.14 in 2.5 mi North 8.1 mph - 0.00 in Snow Light Snow
6:56 PM 19.0 °F 8.2 °F 16.0 °F 88% 30.27 in 1.5 mi North 9.2 mph - 0.00 in Snow Light Snow
7:41 PM 19.4 °F 8.6 °F 15.8 °F 86% 30.15 in 2.0 mi NE 9.2 mph - 0.00 in Snow Light Snow
7:56 PM 19.0 °F 8.2 °F 16.0 °F 88% 30.27 in 2.5 mi NNE 9.2 mph - 0.00 in Snow Light Snow
8:14 PM 19.4 °F 11.5 °F 15.8 °F 86% 30.16 in 2.5 mi NE 5.8 mph - 0.00 in Snow Light Snow
8:56 PM 18.0 °F 8.7 °F 16.0 °F 92% 30.29 in 2.5 mi NNE 6.9 mph - 0.00 in Snow Light Snow
8:59 PM 17.6 °F 8.2 °F 15.8 °F 93% 30.16 in 3.0 mi NNE 6.9 mph - 0.00 in Snow Light Snow
9:05 PM 17.6 °F 9.3 °F 15.8 °F 93% 30.17 in 2.5 mi NNE 5.8 mph - 0.00 in Snow Light Snow
9:18 PM 17.6 °F 10.7 °F 15.8 °F 93% 30.17 in 1.2 mi North 4.6 mph - 0.00 in Snow Light Snow
9:26 PM 17.6 °F 8.2 °F 15.8 °F 93% 30.16 in 1.0 mi NE 6.9 mph - 0.00 in Snow Light Snow
9:39 PM 17.6 °F 6.4 °F 15.8 °F 93% 30.17 in 1.2 mi NNE 9.2 mph - 0.01 in Snow Light Snow
9:50 PM 17.6 °F 6.4 °F 15.8 °F 93% 30.17 in 2.0 mi NNE 9.2 mph - 0.01 in Snow Light Snow
9:56 PM 18.0 °F 7.7 °F 15.1 °F 88% 30.30 in 2.0 mi NNE 8.1 mph - 0.01 in Snow Light Snow
10:07 PM 17.6 °F 7.3 °F 15.8 °F 93% 30.17 in 2.0 mi NNE 8.1 mph - 0.00 in Snow Light Snow
10:23 PM 17.6 °F 7.3 °F 15.8 °F 93% 30.18 in 3.0 mi NNE 8.1 mph - 0.00 in Snow Light Snow
10:38 PM 17.6 °F 9.3 °F 15.8 °F 93% 30.17 in 1.8 mi NNE 5.8 mph - 0.00 in Snow Light Snow
10:56 PM 18.0 °F 8.7 °F 15.1 °F 88% 30.29 in 2.0 mi NNE 6.9 mph - 0.00 in Snow Light Snow
11:05 PM 17.6 °F 7.3 °F 15.8 °F 93% 30.17 in 1.2 mi NNE 8.1 mph - 0.00 in Snow Light Snow
11:09 PM 17.6 °F 7.3 °F 15.8 °F 93% 30.17 in 1.0 mi NNE 8.1 mph - 0.00 in Snow Light Snow
11:21 PM 17.6 °F 8.2 °F 15.8 °F 93% 30.17 in 1.2 mi NE 6.9 mph - 0.00 in Snow Light Snow
11:35 PM 17.6 °F 7.3 °F 15.8 °F 93% 30.17 in 2.5 mi NNE 8.1 mph - 0.00 in Snow Light Snow
11:45 PM 17.6 °F 8.2 °F 15.8 °F 93% 30.18 in 3.0 mi NNE 6.9 mph - 0.00 in Snow Light Snow
11:56 PM 17.1 °F 7.6 °F 15.1 °F 92% 30.29 in 3.0 mi NNE 6.9 mph - 0.00 in Snow Light Snow